TimeEST,TemperatureF,Dew PointF,Humidity,Sea Level PressureIn,VisibilityMPH,Wind Direction,Wind SpeedMPH,Gust SpeedMPH,PrecipitationIn,Events,Conditions,WindDirDegrees,DateUTC
12:53 AM,43.0,24.1,47,30.13,10.0,ESE,4.6,-,N/A,,Overcast,120,2013-02-19 05:53:00
1:53 AM,43.0,23.0,45,30.09,10.0,SE,4.6,-,N/A,,Overcast,130,2013-02-19 06:53:00
2:53 AM,42.1,25.0,51,30.09,10.0,SE,4.6,-,N/A,,Overcast,140,2013-02-19 07:53:00
3:53 AM,42.1,26.1,53,30.06,10.0,ESE,4.6,-,N/A,,Overcast,120,2013-02-19 08:53:00
4:53 AM,37.9,34.0,86,30.06,5.0,East,6.9,-,0.10,Rain,Rain,100,2013-02-19 09:53:00
5:09 AM,37.4,35.6,93,30.09,5.0,Calm,Calm,-,0.04,Rain,Light Rain,0,2013-02-19 10:09:00
5:53 AM,37.9,35.1,89,30.08,7.0,NNE,3.5,-,0.10,Rain,Light Rain,20,2013-02-19 10:53:00
6:53 AM,37.0,36.0,96,30.09,3.0,Calm,Calm,-,0.12,Rain,Light Rain,0,2013-02-19 11:53:00
7:00 AM,37.4,35.6,93,30.08,3.0,Calm,Calm,-,0.01,Rain,Light Rain,0,2013-02-19 12:00:00
7:24 AM,37.4,35.6,93,30.06,4.0,East,5.8,-,0.02,Rain,Light Rain,100,2013-02-19 12:24:00
7:53 AM,37.0,36.0,96,30.07,3.0,ESE,4.6,-,0.03,Rain,Light Rain,120,2013-02-19 12:53:00
8:17 AM,37.4,35.6,93,30.05,2.0,ESE,4.6,-,0.00,Rain,Light Rain,110,2013-02-19 13:17:00
8:49 AM,37.4,35.6,93,30.05,2.5,East,6.9,-,0.00,Rain,Light Rain,80,2013-02-19 13:49:00
8:53 AM,37.0,36.0,96,30.06,3.0,ESE,5.8,-,0.00,Rain,Light Rain,110,2013-02-19 13:53:00
8:58 AM,37.4,35.6,93,30.05,2.0,ESE,5.8,-,0.01,Rain,Light Rain,120,2013-02-19 13:58:00
9:28 AM,37.4,37.4,100,30.06,3.0,SE,3.5,-,0.02,,Overcast,130,2013-02-19 14:28:00
9:42 AM,37.4,37.4,100,30.05,2.5,Calm,Calm,-,0.02,,Overcast,0,2013-02-19 14:42:00
9:53 AM,37.0,36.0,96,30.06,2.0,Calm,Calm,-,0.02,,Overcast,0,2013-02-19 14:53:00
10:09 AM,37.4,35.6,93,30.06,3.0,Calm,Calm,-,N/A,,Overcast,0,2013-02-19 15:09:00
10:29 AM,39.2,37.4,93,30.06,2.5,Calm,Calm,-,N/A,,Overcast,0,2013-02-19 15:29:00
10:43 AM,39.2,37.4,93,30.06,2.0,Calm,Calm,-,0.00,Rain,Light Rain,0,2013-02-19 15:43:00
10:49 AM,39.2,37.4,93,30.06,3.0,WNW,3.5,-,0.00,,Overcast,300,2013-02-19 15:49:00
10:53 AM,39.0,37.0,93,30.06,3.0,NW,3.5,-,0.00,,Overcast,310,2013-02-19 15:53:00
11:14 AM,39.2,37.4,93,30.05,2.0,Calm,Calm,-,N/A,,Overcast,0,2013-02-19 16:14:00
11:23 AM,39.2,37.4,93,30.05,3.0,Calm,Calm,-,N/A,,Overcast,0,2013-02-19 16:23:00
11:53 AM,39.9,37.9,93,30.05,4.0,West,4.6,-,N/A,,Overcast,260,2013-02-19 16:53:00
1:35 PM,46.4,42.8,87,30.02,7.0,West,11.5,21.9,N/A,,Overcast,280,2013-02-19 18:35:00
1:45 PM,44.6,41.0,87,30.02,9.0,WNW,11.5,-,N/A,,Overcast,300,2013-02-19 18:45:00
1:53 PM,46.0,42.1,86,30.01,9.0,WNW,9.2,-,N/A,,Overcast,300,2013-02-19 18:53:00
2:00 PM,46.4,42.8,87,30.00,10.0,WNW,11.5,-,N/A,,Overcast,290,2013-02-19 19:00:00
2:23 PM,48.2,41.0,76,30.00,10.0,West,10.4,-,N/A,,Scattered Clouds,280,2013-02-19 19:23:00
2:53 PM,51.1,39.9,66,30.00,10.0,West,10.4,24.2,N/A,,Clear,270,2013-02-19 19:53:00
3:53 PM,53.1,33.1,47,29.99,10.0,West,15.0,32.2,N/A,,Clear,270,2013-02-19 20:53:00
4:53 PM,54.0,25.0,33,30.00,10.0,West,19.6,28.8,N/A,,Clear,270,2013-02-19 21:53:00
5:53 PM,51.1,23.0,33,30.02,10.0,West,17.3,25.3,N/A,,Clear,280,2013-02-19 22:53:00
7:53 PM,46.0,17.1,31,30.07,10.0,West,15.0,-,N/A,,Clear,280,2013-02-20 00:53:00
8:53 PM,44.1,17.1,34,30.09,10.0,West,4.6,-,N/A,,Clear,270,2013-02-20 01:53:00
9:53 PM,42.1,18.0,38,30.10,10.0,West,11.5,-,N/A,,Clear,280,2013-02-20 02:53:00
10:53 PM,41.0,16.0,36,30.12,10.0,WNW,10.4,20.7,N/A,,Clear,300,2013-02-20 03:53:00
11:53 PM,39.9,15.1,36,30.13,10.0,WNW,15.0,23.0,N/A,,Clear,300,2013-02-20 04:53:00